This is the latest recevied weather packets stored in our database for station/object N7WGJ. If no packets are shown the sender has not sent any weather packets the latest 10 day(s).
| Time | Temp. | Humidity | Pressure | Rain* | Wind** | Luminosity | Snow |
|---|---|---|---|---|---|---|---|
| 1788246114 | 15° C | 83% | 1008.8 hPa | 0 mm | - | - | - |
| 1788245484 | 15° C | 82% | 1008.7 hPa | 0 mm | - | - | - |
| 1788244887 | 15.56° C | 81% | 1008.7 hPa | 0 mm | - | - | - |
| 1788244291 | 15.56° C | 81% | 1008.6 hPa | 0 mm | - | - | - |
| 1788243692 | 15.56° C | 80% | 1008.6 hPa | 0 mm | - | - | - |
| 1788243092 | 16.11° C | 79% | 1008.8 hPa | 0 mm | - | - | - |
| 1788242507 | 16.11° C | 78% | 1008.9 hPa | 0 mm | - | - | - |
| 1788241900 | 16.67° C | 78% | 1008.9 hPa | 0 mm | - | - | - |
| 1788241300 | 16.67° C | 77% | 1009 hPa | 0 mm | - | - | - |
| 1788240686 | 16.67° C | 77% | 1008.9 hPa | 0 mm | - | - | - |
| 1788240084 | 16.67° C | 76% | 1009 hPa | 0 mm | - | - | - |
| 1788239485 | 17.22° C | 76% | 1009 hPa | 0 mm | - | - | - |
| 1788238905 | 17.22° C | 76% | 1009.1 hPa | 0 mm | - | - | - |
| 1788238300 | 17.22° C | 76% | 1009.2 hPa | 0 mm | - | - | - |
| 1788237700 | 17.22° C | 76% | 1009.1 hPa | 0 mm | - | - | - |
| 1788237102 | 17.22° C | 76% | 1009 hPa | 0 mm | - | - | - |
| 1788236483 | 17.78° C | 75% | 1009.1 hPa | 0 mm | - | - | - |
| 1788235889 | 17.78° C | 74% | 1009 hPa | 0 mm | - | - | - |
| 1788235308 | 17.78° C | 74% | 1009 hPa | 0 mm | - | - | - |
| 1788234696 | 17.78° C | 73% | 1008.9 hPa | 0 mm | - | - | - |
| 1788234099 | 18.33° C | 72% | 1008.9 hPa | 0 mm | - | - | - |
| 1788233502 | 18.33° C | 71% | 1008.8 hPa | 0 mm | - | - | - |
| 1788232885 | 18.89° C | 70% | 1008.6 hPa | 0 mm | - | - | - |
| 1788232300 | 18.89° C | 69% | 1008.5 hPa | 0 mm | - | - | - |
| 1788231701 | 19.44° C | 67% | 1008.6 hPa | 0 mm | - | - | - |
* Rain latest hour (hover to see other rain measurements)
** Current wind speed in m/s (hover to see current wind gust speed)